This demonstration page uses our WeatherBlox Daily Observations layout. Learn more.

Left ArrowRight Arrow

Hourly Observations for April 30, 2016

Temp ( °F °C ) Dew Point ( °F °C ) Humidity (%) Winds ( mph kmh ) Pressure ( in mb ) Visibility ( mi km ) Precip ( " mm )
12:51 am 00:51 Clear 52 11.1 29 -1.7 41 41 N 3 6 29.75 1008 10 16 0.00 0.00
1:51 am 01:51 Mostly Clear 53 11.7 30 -1.1 41 41 N 6 9 29.73 1007 10 16 0.00 0.00
2:51 am 02:51 Clear 53 11.7 30 -1.1 41 41 ESE 5 7 29.73 1007 10 16 0.00 0.00
3:51 am 03:51 Mostly Clear 50 10 30 -1.1 46 46 E 6 9 29.75 1007 10 16 0.00 0.00
4:51 am 04:51 Clear 46 7.8 28 -2.2 50 50 Calm 29.74 1007 10 16 0.00 0.00
5:51 am 05:51 Sunny 46 7.8 29 -1.7 51 51 SSE 6 9 29.74 1007 10 16 0.00 0.00
6:51 am 06:51 Sunny 54 12.2 31 -0.6 42 42 SSE 9 15 29.75 1008 10 16 0.00 0.00
7:51 am 07:51 Sunny 62 16.7 32 0 32 32 ESE 8 13 29.74 1007 10 16 0.00 0.00
8:51 am 08:51 Sunny 66 18.9 32 0 28 28 SE 8 13 29.72 1006 10 16 0.00 0.00
9:51 am 09:51 Sunny 68 20 32 0 26 26 undefined N/A 29.70 1006 10 16 0.00 0.00
10:51 am 10:51 Mostly Sunny 71 21.7 29 -1.7 21 21 VRB 7 11 29.67 1005 10 16 0.00 0.00
11:51 am 11:51 Sunny 73 22.8 27 -2.8 18 18 VRB 7 11 29.63 1004 10 16 0.00 0.00
12:51 pm 12:51 Mostly Sunny 77 25 28 -2.2 16 16 SSE 15 24 29.59 1002 10 16 0.00 0.00
1:51 pm 13:51 Mostly Cloudy 78 25.6 27 -2.8 15 15 VRB 5 7 29.56 1001 10 16 0.00 0.00
2:51 pm 14:51 Partly Cloudy 76 24.4 26 -3.3 16 16 VRB 6 9 29.54 1000 10 16 0.00 0.00
3:51 pm 15:51 Cloudy 74 23.3 27 -2.8 17 17 WSW 8 13 29.54 1000 10 16 0.00 0.00
4:51 pm 16:51 Mostly Cloudy 73 22.8 29 -1.7 19 19 SW 18 30 29.55 1001 10 16 0.00 0.00
5:51 pm 17:51 Mostly Cloudy 72 22.2 30 -1.1 21 21 WNW 13 20 29.56 1001 10 16 0.00 0.00
6:51 pm 18:51 Mostly Cloudy 68 20 33 0.6 27 27 WNW 20 31 29.59 1002 10 16 0.00 0.00
7:51 pm 19:51 Mostly Cloudy 65 18.3 36 2.2 34 34 NNW 15 24 29.59 1002 10 16 0.00 0.00
8:51 pm 20:51 Cloudy 66 18.9 35 1.7 32 32 NNE 12 19 29.60 1002 10 16 0.00 0.00
9:46 pm 21:46 Cloudy 63 17 39 4 42 42 WNW 25 41 29.62 1003 10 16 0.00 0.00
9:51 pm 21:51 Mostly Cloudy 60 15.6 41 5 50 50 NW 26 43 29.64 1004 10 16 0.00 0.00
10:51 pm 22:51 Cloudy 60 15.6 40 4.4 47 47 NW 18 30 29.65 1004 10 16 0.00 0.00
11:51 pm 23:51 Mostly Clear 57 13.9 42 5.6 58 58 W 13 20 29.67 1005 10 16 0.00 0.00

Powered by AerisWeather